Printer-friendly version

IAU Minor Planet Center

Minor Planet Center

MPEC 2005-E34 : 2005 EO30

The following Minor Planet Electronic Circular may be linked-to from your own Web pages, but must not otherwise be redistributed electronically.


Read MPEC 2005-E33 Read MPEC 2005-E35


M.P.E.C. 2005-E34                                Issued 2005 Mar. 7, 12:40 UT

     The Minor Planet Electronic Circulars contain information on unusual
         minor planets and routine data on comets.  They are published
   on behalf of Commission 20 of the International Astronomical Union by the
          Minor Planet Center, Smithsonian Astrophysical Observatory,
                          Cambridge, MA 02138, U.S.A.

                  Supported in part by the Brinson Foundation
             Prepared using the Tamkin Foundation Computer Network

                              MPC@CFA.HARVARD.EDU
          URL http://cfa-www.harvard.edu/iau/mpc.html  ISSN 1523-6714

                                   2005 EO30

Observations:
     K05E30O* C2005 03 04.42359 14 21 05.71 -09 26 44.8          18.8   EE034704
     K05E30O  C2005 03 04.43489 14 21 05.22 -09 29 35.0          19.2   EE034704
     K05E30O  C2005 03 04.44663 14 21 04.56 -09 32 29.4          19.2   EE034704
     K05E30O  C2005 03 04.45782 14 21 04.03 -09 35 15.1          19.4   EE034704
     K05E30O  C2005 03 04.46905 14 21 03.48 -09 38 02.3          19.3   EE034704
     K05E30O  C2005 03 05.01107 14 21 06.32 -11 54 07.4                 EE034246
     K05E30O  C2005 03 05.01144 14 21 06.31 -11 54 11.5                 EE034246
     K05E30O  C2005 03 05.01371 14 21 06.14 -11 54 47.4                 EE034246
     K05E30O  C2005 03 05.01567 14 21 06.12 -11 55 16.9                 EE034246
     K05E30O  C2005 03 05.01622 14 21 06.04 -11 55 25.6                 EE034246
     K05E30O  C2005 03 05.02072 14 21 05.84 -11 56 33.7                 EE034246
     K05E30O  C2005 03 05.02101 14 21 05.93 -11 56 39.1                 EE034246
     K05E30O  C2005 03 05.02196 14 21 05.86 -11 56 52.6                 EE034246
     K05E30O  C2005 03 05.02266 14 21 05.82 -11 57 02.8                 EE034246
     K05E30O  C2005 03 05.02303 14 21 05.84 -11 57 09.8                 EE034246
     K05E30O  C2005 03 05.02363 14 21 05.76 -11 57 17.6                 EE034246
     K05E30O 2C2005 03 07.36824 14 20 35.57 -22 02 25.7          18.4 R EE034H06
     K05E30O 2C2005 03 07.37126 14 20 35.22 -22 03 10.3          18.1 R EE034H06
     K05E30O 2C2005 03 07.37435 14 20 34.97 -22 03 57.5          18.2 R EE034H06
     K05E30O  C2005 03 07.41823 14 20 32.61 -22 15 30.5          18.9 R EE034854
     K05E30O  C2005 03 07.42139 14 20 32.30 -22 16 20.3          19.1 R EE034854

Observer details:
246 Klet Observatory-KLENOT.  Observers M. Tichy, J. Ticha.  Measurer M. Tichy.
    1.06-m KLENOT Telescope + CCD.
704 Lincoln Laboratory ETS, New Mexico.  Observers M. Blythe, F. Shelly,
    M. Bezpalko, R. Huber, L. Manguso, D. Torres, R. Krack.  Measurers
    J. Stuart, R. Sayer, J. Evans, J. Kommers.  1.0-m f/2.15 reflector + CCD.
854 Sabino Canyon Observatory, Tucson.  Observer J. E. McGaha.  0.36-m f/10.0
    Schmidt-Cassegrain + CCD.
H06 New Mexico Skies Observatory.  Observer R. Hutsebaut.  0.25-m reflector
    + CCD.

Orbital elements:
2005 EO30
Epoch 2005 Feb. 19.0 TT = JDT 2453420.5                 MPC
M 340.99931              (2000.0)            P               Q
n   0.72555203     Peri.  191.85811     -0.99866942     -0.00069813
a   1.2265644      Node   347.74533     +0.03172636     -0.79660272
e   0.1616872      Incl.   14.05980     -0.04065506     -0.60450279
P   1.36           H   22.9           G   0.15
From 20 observations 2005 Mar. 4-7.

Ephemeris:
2005 EO30                a,e,i = 1.23, 0.16, 14                  q = 1.0282
Date    TT    R. A. (2000) Decl.     Delta      r     Elong.  Phase     V
2005 03 01    14 20.63   +03 42.4    0.070    1.034   126.9    50.0    19.0
2005 03 11    14 18.36   -37 26.4    0.064    1.029   122.4    54.6    19.0
2005 03 21    13 58.74   -67 44.1    0.088    1.029   109.5    65.9    20.0
2005 03 31    12 46.62   -81 29.4    0.122    1.033   102.6    70.8    20.9
2005 04 10    09 00.97   -85 27.4    0.158    1.041    99.9    71.5    21.5
2005 04 20    06 33.45   -83 57.3    0.192    1.053    99.4    70.2    21.9

Timothy B. Spahr             (C) Copyright 2005 MPC           M.P.E.C. 2005-E34

Read MPEC 2005-E33 Read MPEC 2005-E35


Our Web policy. Index to the CBAT/MPC/ICQ pages.


Valid HTML 4.01!